Location: Stoke Bliss
(52.2667°N, 2.5167°W)
Time: 11:53:18
(UTC+00:00)

Envisat - Pass Details

Date: 09 December 2021
Orbit: 764 x 766 km, 98.2° (Epoch: 23 January)

Event Time Altitude Azimuth Distance (km) Brightness Sun altitude
Rises 04:04:24 0° 24° (NNE) 3,247 6.6 -35.8°
Reaches altitude 10° 04:07:17 10° 40° (NE) 2,315 6.0 -35.3°
Maximum altitude 04:11:07 21° 89° (E) 1,670 5.3 -34.8°
Drops below altitude 10° 04:14:55 10° 138° (SE) 2,300 5.8 -34.2°
Sets 04:17:45 0° 155° (SSE) 3,221 6.5 -33.7°
